Regional Weather Roundup
Issued by NWS

Home | Current Version | Previous Version | Graphics & Text | Print | Product List | Glossary On
Versions: 1 2 3 4 5 6 7 8 9 10 11 12 13 14 15 16 17 18 19 20 21 22 23 24 25 26 27 28 29 30 31 32 33 34 35 36 37 38 39 40 41 42 43 44 45 46 47 48 49 50
000
ASUS43 KMKX 180500
RWRWI

WISCONSIN REGIONAL WEATHER ROUNDUP
NATIONAL WEATHER SERVICE MILWAUKEE/SULLIVAN WI
1200 AM CDT FRI APR 18 2014

NOTE: "FAIR" INDICATES FEW OR NO CLOUDS BELOW 12,000 FEET WITH NO
SIGNIFICANT WEATHER AND/OR OBSTRUCTIONS TO VISIBILITY.

WIZ001-002-006>008-014>016-023>028-180600-
NORTHWEST WISCONSIN

CITY           SKY/WX    TMP DP  RH WIND       PRES   REMARKS
SUPERIOR ARPT  CLEAR     26  21  83 CALM      30.32S
ASHLAND        CLEAR     28  25  88 CALM      30.32S
HAYWARD        FOG       22  19  89 CALM      30.30S VSB 1/4
SIREN          CLEAR     25  24  96 CALM      30.32S
RICE LAKE      CLEAR     26  25  96 CALM      30.32S
LADYSMITH      CLEAR     31  26  83 CALM      30.31S
EAU CLAIRE     NOT AVBL
MENOMONIE      CLEAR     31  27  85 CALM      30.32S
NEW RICHMOND   CLEAR     28  28  99 CALM      30.31S
OSCEOLA        CLEAR     25  24  96 CALM      30.33F
$$

WIZ003>005-009-010-017-018-180600-
NORTH CENTRAL WISCONSIN

CITY           SKY/WX    TMP DP  RH WIND       PRES   REMARKS
WOODRUFF       CLOUDY    32  28  86 NW3       30.26F
RHINELANDER    CLOUDY    32  25  75 NW5       30.27S WCI  27
EAGLE RIVER    CLOUDY    32  23  71 NW9       30.26S WCI  24
LAND O LAKES   CLOUDY    31  26  80 NW5       30.26S WCI  27
PHILLIPS       CLOUDY    32  26  80 CALM      30.27F
TOMAHAWK       CLOUDY    32  26  77 CALM      30.28S
MEDFORD        CLOUDY    32  25  76 CALM      30.28F
MERRILL        CLOUDY    33  27  78 CALM      30.29S
$$

WIZ029-030-035-036-043>047-180600-
CENTRAL WISCONSIN

CITY           SKY/WX    TMP DP  RH WIND       PRES   REMARKS
WAUSAU         CLOUDY    34  26  72 NW6       30.27S WCI  29
MOSINEE        CLOUDY    32  30  93 NW6       30.30R WCI  26
MARSHFIELD     CLOUDY    34  26  72 N6        30.29S WCI  29
STEVENS POINT  CLOUDY    34  27  75 NW3       30.30S
WAUPACA        CLOUDY    39  28  65 NW6       30.30R WCI  35
WAUTOMA        NOT AVBL
WISC RAPIDS    CLOUDY    36  27  69 N7        30.31S WCI  30
CAMP DOUGLAS   NOT AVBL
$$

WIZ011>013-019>022-031-037>040-048>050-180600-
NORTHEAST WISCONSIN

CITY           SKY/WX    TMP DP  RH WIND       PRES   REMARKS
ANTIGO         CLOUDY    32  27  83 NW5       30.27S WCI  27
STURGEON BAY   CLOUDY    37  32  81 NW3       30.27S
GREEN BAY      CLOUDY    37  33  85 W6        30.28S WCI  32
MANITOWOC      CLOUDY    43  34  70 N7        30.27S
APPLETON       CLEAR     34  30  86 NW7       30.28S WCI  28
CLINTONVILLE   CLOUDY    37  30  75 NW6       30.28S WCI  33
OSHKOSH        CLEAR     35  30  82 NW3       30.28R
$$

WIZ032>034-041-042-053>061-180600-
SOUTHWEST WISCONSIN

CITY           SKY/WX    TMP DP  RH WIND       PRES   REMARKS
LA CROSSE      CLOUDY    39  27  62 N6        30.32S WCI  35
SPARTA         CLOUDY    37  28  70 NW6       30.32S WCI  33
VIROQUA        FAIR      34  29  83 CALM      30.28S
BOSCOBEL       CLEAR     32  28  85 CALM      30.31F
PRAIRIE DU CHI CLEAR     34  29  83 CALM      30.31S
PLATTEVILLE    FAIR      36  31  83 NW6       30.30S WCI  31
$$

WIZ056-057-062-063-064-067-068-180600-
SOUTH CENTRAL WISCONSIN

CITY           SKY/WX    TMP DP  RH WIND       PRES   REMARKS
BARABOO/DELLS  CLEAR     32  29  88 CALM      30.29S
LONE ROCK      NOT AVBL
WATERTOWN      MOCLDY    37  33  84 N6        30.27S WCI  33
MADISON        CLEAR     36  31  82 N5        30.29S WCI  32
MIDDLETON      FAIR      33  30  89 CALM      30.29R
MONROE         CLEAR     38  38 100 N8        30.27R WCI  32
JANESVILLE     MOCLDY    43  34  70 N8        30.27R
$$

WIZ051-052-058>065-066-070>072-180600-
SOUTHEAST WISCONSIN

CITY           SKY/WX    TMP DP  RH WIND       PRES   REMARKS
MILWAUKEE      CLOUDY    45  36  70 N6        30.27R
WAUKESHA       CLOUDY    41  34  75 NW8       30.27S
MILWAUKEE/TIMM CLOUDY    43  34  70 N9        30.27R
RACINE         CLOUDY    40  36  86 N6        30.27R
BURLINGTON     CLOUDY    43  37  78 N7        30.25R
KENOSHA        MOCLDY    43  36  76 CALM      30.25R
FOND DU LAC    CLEAR     35  30  82 NW5       30.28S WCI  31
SHEBOYGAN      MOCLDY    39  35  86 NW5       30.27R
WEST BEND      CLOUDY    39  32  75 NW7       30.26S WCI  34
JUNEAU         PTCLDY    36  32  86 NW3       30.28S
$$

LSZ147-162-180600-
LAKE SUPERIOR

STATION/POSITION TIME  TEMP    WIND        PRES    WAVE
                       AIR SEA DIR/SP/G            HT/PER
                 (UTC) (F)     (DEG/KT/KT) (MB)    (FT/S)
DEVILS ISLAND    0400   33     290/  9/ 11 1027.3R
PORT WING        0400   30     150/  2/  2 1026.8R
SAXON HARBOR     0400           CALM  /  3 1026.4R
$$

LMZ867-665-643>646-180600-
LAKE MICHIGAN

STATION/POSITION TIME  TEMP    WIND        PRES    WAVE
                       AIR SEA DIR/SP/G            HT/PER
                 (UTC) (F)     (DEG/KT/KT) (MB)    (FT/S)
NORTHPORT PIER   0400   36     240/  3/  4 1024.7R
SISTER BAY       0423   35        CALM       N/A
KEWAUNEE LAKESHO 0400   38        CALM     1025.5R
SHEBOYGAN LAKESH 0400   41      10/ 11/ 13 1025.5R
PORT WASHINGTON  0400   44     320/  7/ 12 1025.1S
MILWAUKEE LAKESH 0400   47     340/  8/ 10   N/A
KENOSHA   LAKESH 0400   45     210/  2/  3   N/A
$$

TC  - TEMPERATURE IN CELSIUS
VSB - VISIBILITY IN STATUTE MILES
WCI - WIND CHILL INDEX
HX  - HEAT INDEX




USA.gov is the U.S. government's official web portal to all federal, state and local government web resources and services.